User: anonymous   Login
Location: Unspecified
(0.0000°N, 0.0000°E)
Time: 22:20:21
(UTC+01:00)
Language:

Delta 2 Rocket - Orbit

View from above orbital plane
View from above orbital plane
View from above satellite
View from above satellite

Ground track
Ground track

The orbit data is extracted from the following two-line orbital elements,

1 20453U 90008B   17016.56306928  .00001453  00000-0  86236-4 0  9997
2 20453  35.6270  40.8229 0291223 347.4049  11.9505 14.82730322425682
Epoch (UTC): 16 January 2017 13:30:49
Eccentricity: 0.0291223
inclination: 35.6270°
perigee height: 417 km
apogee height: 824 km
right ascension of ascending node: 40.8229°
argument of perigee: 347.4049°
revolutions per day: 14.82730322
mean anomaly at epoch: 11.9505°
orbit number at epoch: 42568

The dashed part of the orbit path shows where the satellite is in the earth's shadow,  

DLR